Theta_e
313 312 311 311 312 313 313 314 316 330 323 338 337 337 337 336 339 342 345 345 346 346 345 346 347 348 349 349 350 350 350 348 345 339 332 327 323 319 317 316 316 313 313 311
314 315 314 313 311 313 313 313 313 314 316 336 335 337 336 338 341 341 345 345 346 343 344 343 344 346 348 350 350 349 349 347 342 335 331 326 320 318 316 316 313 312 312 313
316 317 316 316 315 315 314 316 316 316 326 329 336 338 341 340 338 342 342 343 344 345 345 342 340 341 343 347 349 348 346 343 338 333 329 323 319 318 316 314 314 315 315 316
316 316 318 318 317 315 318 314 316 318 321 321 333 328 331 340 341 342 342 342 343 343 344 340 336 338 339 341 345 346 346 342 339 335 330 326 320 318 317 315 316 317 318 317
318 318 317 318 318 315 318 315 316 319 318 320 327 321 321 336 343 342 342 341 342 342 343 340 337 336 337 337 340 339 339 338 339 335 334 325 320 318 318 317 318 319 319 318
316 316 318 318 319 316 317 317 314 313 313 318 318 325 317 322 341 342 341 341 341 342 342 337 335 333 332 332 333 334 334 334 337 334 330 325 322 319 318 318 319 319 319 319
317 318 318 319 320 317 315 316 317 319 319 320 316 317 317 317 318 331 336 338 339 340 340 334 332 329 329 329 329 331 330 331 332 334 328 322 321 320 319 319 319 319 319 319
316 318 319 319 319 318 317 315 317 319 317 316 317 320 319 319 323 324 326 320 333 340 337 335 332 329 327 327 328 325 327 327 329 330 325 321 321 320 320 319 320 320 320 320
315 317 318 320 320 319 318 317 314 315 316 318 316 319 325 326 326 339 338 325 337 338 334 333 330 329 328 329 330 325 324 324 325 324 321 320 320 321 321 321 320 320 320 321
317 319 318 320 319 318 318 316 320 316 321 323 319 321 326 326 326 335 340 339 337 333 331 330 328 329 328 330 327 325 324 323 322 321 320 319 319 319 319 319 320 321 321 321
315 317 318 321 320 319 319 318 315 315 317 320 321 321 318 322 324 331 336 336 335 332 330 329 330 328 329 326 326 324 323 322 322 322 321 320 320 320 321 320 321 321 320 317
316 314 317 318 318 319 319 317 316 319 319 317 317 319 317 320 322 325 333 335 333 332 331 330 329 328 326 325 324 323 322 321 320 320 319 319 320 320 321 321 321 317 314 311
318 317 318 319 318 320 322 319 316 314 315 319 321 321 318 320 321 321 324 330 333 332 330 327 325 326 326 324 322 322 321 320 320 321 322 321 320 321 321 320 315 313 311 309
320 315 318 320 319 320 322 321 319 319 319 320 319 320 321 321 322 323 322 321 324 330 329 327 324 324 325 324 322 321 321 321 320 322 322 321 321 321 319 315 313 312 309 308
318 321 319 319 318 320 323 323 321 322 321 323 323 320 321 320 320 319 318 319 320 328 329 327 325 323 324 322 322 322 322 322 322 322 321 321 321 319 314 313 312 310 308 306
318 321 320 324 323 323 324 323 322 322 322 321 321 320 317 317 316 318 318 318 321 324 328 328 327 323 321 322 322 322 322 322 322 322 321 321 317 314 313 312 310 307 304 305
320 321 322 324 323 325 324 323 323 322 320 321 321 319 318 319 318 317 317 317 319 322 325 327 326 324 320 322 322 322 322 323 322 322 321 318 315 313 312 309 305 304 305 306
320 318 318 320 323 326 321 321 322 323 322 319 319 319 318 318 317 317 317 318 319 320 322 323 322 320 321 321 322 322 322 322 321 320 317 315 314 312 307 305 305 305 305 305
318 319 323 324 323 322 323 325 324 324 324 320 320 321 320 319 325 321 322 322 322 322 323 322 322 321 321 321 321 322 321 320 319 316 314 314 313 307 305 305 305 305 304 304
319 319 323 323 325 327 321 321 321 322 326 322 319 320 321 323 323 320 321 326 326 324 323 322 321 321 321 321 321 321 320 318 316 313 313 313 309 306 305 305 304 303 300 301
323 323 325 321 323 322 320 323 322 327 325 322 322 320 319 322 320 317 323 323 323 323 323 322 321 321 320 320 319 317 316 315 313 313 312 308 307 305 305 305 304 300 300 302
321 322 322 320 323 326 321 323 325 321 321 325 324 323 320 318 319 322 322 321 321 321 322 322 320 319 319 318 316 314 313 312 313 312 308 306 305 304 305 303 299 299 297 298
320 319 321 321 320 317 321 324 323 320 321 324 325 323 323 323 324 323 320 318 318 320 318 316 316 315 315 315 314 310 308 312 311 308 306 305 305 305 304 299 298 298 298 298
318 318 318 321 319 320 324 323 322 324 323 323 324 324 323 322 322 320 317 315 316 316 315 315 315 314 312 312 312 312 310 310 308 306 305 305 304 304 302 299 299 299 299 299
318 318 321 323 321 326 324 323 322 322 323 324 324 324 324 321 321 317 316 315 315 315 315 315 315 315 313 314 312 311 308 308 306 305 305 304 303 303 301 301 301 301 302 302
314 317 321 323 321 320 319 317 319 322 322 321 321 322 323 320 319 317 316 315 315 315 315 315 314 311 310 313 313 309 308 307 306 305 305 304 303 302 302 302 302 302 303 303
Wind_Speed
4 4 5 6 4 5 5 4 6 5 7 7 15 15 11 6 6 8 9 9 8 7 7 15 19 20 21 22 23 24 25 26 28 27 26 22 20 19 17 16 16 16 17 17
6 2 5 5 5 5 6 8 7 4 3 10 3 16 5 6 4 5 9 10 12 7 7 12 19 21 20 22 22 24 26 29 29 29 25 24 25 20 20 19 19 18 18 17
5 4 3 5 5 5 5 4 4 4 3 3 5 5 6 6 5 5 7 8 8 14 15 11 14 19 18 21 23 25 27 28 27 26 24 24 23 23 21 19 19 17 16 16
4 4 2 2 4 7 3 8 4 8 5 4 2 4 5 6 8 7 9 13 13 12 10 11 16 21 24 22 22 22 26 26 24 24 26 26 27 25 20 19 18 16 14 15
5 4 5 4 6 7 8 6 5 2 5 5 1 4 7 4 6 12 14 14 15 17 17 17 20 23 27 24 24 23 23 23 24 26 22 23 23 23 21 19 17 14 12 12
6 2 4 7 3 5 7 7 8 5 3 1 5 6 6 5 11 12 14 16 17 18 17 13 18 22 25 26 22 20 21 21 25 25 22 22 22 26 24 20 16 13 11 9
3 4 4 3 3 4 6 7 2 2 3 5 1 3 8 6 6 9 12 17 17 14 16 15 16 18 26 26 23 18 20 24 24 25 24 21 22 24 24 20 16 13 10 7
3 5 5 4 4 7 5 7 6 7 4 6 2 5 6 7 5 8 11 12 9 14 15 17 17 20 12 18 14 16 27 26 27 28 25 23 22 24 21 18 14 11 9 5
4 6 4 4 3 5 5 4 4 7 4 2 3 6 8 4 6 3 7 6 8 12 14 15 23 30 36 38 30 33 29 27 29 29 26 24 23 23 21 16 14 12 8 5
3 2 4 1 4 4 4 5 3 2 5 4 5 4 5 5 9 5 5 7 7 7 9 11 17 29 28 33 28 34 30 31 30 29 27 24 22 20 19 18 15 11 9 6
6 5 8 2 3 8 3 1 5 5 4 6 3 6 7 8 8 9 8 8 8 10 13 15 20 28 33 24 32 34 34 32 31 31 27 24 23 19 18 16 12 9 7 5
3 5 5 10 2 2 2 6 6 5 4 1 4 6 4 9 7 8 9 9 8 11 13 14 16 21 23 27 31 36 35 33 32 29 28 25 23 20 17 16 13 9 7 7
6 1 2 8 6 2 4 4 4 6 4 7 6 6 3 5 6 8 9 8 8 9 8 8 11 18 23 25 25 27 32 30 29 26 25 25 22 20 20 17 14 12 9 8
7 4 7 7 7 2 3 5 4 5 4 5 7 6 6 7 8 6 8 9 8 8 8 10 10 16 23 23 26 28 32 31 29 27 25 24 21 22 20 19 15 11 7 6
6 5 5 6 7 3 3 4 8 7 5 7 7 9 8 9 8 8 7 5 8 11 13 15 15 15 21 22 26 29 32 31 29 28 25 24 23 22 22 18 14 10 5 3
1 4 6 3 3 6 5 7 5 4 2 6 7 7 9 7 6 8 9 8 9 12 17 19 18 15 21 25 28 31 33 33 32 30 27 25 26 25 21 17 14 11 6 5
4 7 4 5 3 4 7 8 10 6 5 7 7 9 4 6 9 9 10 8 11 13 15 15 18 17 23 29 33 33 35 36 33 32 30 31 30 25 21 18 14 10 8 7
6 5 4 4 2 8 6 3 6 10 6 8 5 6 8 9 7 8 8 8 9 10 10 11 10 17 24 29 32 36 37 36 35 33 32 34 30 25 23 18 14 9 8 8
6 5 2 4 6 5 5 2 5 6 10 7 8 8 6 3 1 7 8 7 8 5 2 6 14 21 27 31 36 39 34 34 32 31 32 34 30 28 22 16 12 11 10 8
5 3 5 4 5 9 6 12 7 4 6 7 7 9 4 4 1 6 4 2 1 5 12 16 22 25 29 32 35 34 31 31 30 34 36 34 30 25 19 15 14 11 7 6
3 2 8 4 6 6 6 5 4 7 8 4 1 2 5 5 6 3 3 2 4 5 11 17 20 20 23 28 30 31 31 28 32 37 35 32 27 22 18 17 14 11 11 12
8 7 5 3 4 9 3 3 6 5 3 2 2 3 5 7 5 5 5 4 8 9 15 15 17 17 19 22 29 27 26 32 37 38 35 30 24 20 20 19 17 15 14 13
5 7 5 9 7 4 2 2 1 3 4 3 3 5 5 6 4 2 3 5 6 12 15 21 23 22 23 27 28 18 30 37 38 38 34 28 22 23 23 21 22 17 12 11
3 0 3 1 1 3 2 1 2 1 3 5 3 6 6 6 4 4 7 8 9 15 18 22 25 22 19 19 25 30 33 37 39 36 32 28 25 25 24 22 19 15 12 8
2 5 1 3 4 2 1 2 2 2 3 4 5 5 6 5 5 5 6 8 10 15 19 22 23 23 24 28 26 28 31 36 35 33 31 28 26 25 26 20 17 13 8 6
1 3 1 3 1 2 5 3 3 4 6 7 5 7 6 5 7 6 5 8 15 18 20 19 21 25 24 24 22 28 34 36 35 31 31 28 27 26 24 19 14 11 8 7
Wind_Direction
5 79 182 185 173 143 113 123 180 233 216 144 216 232 254 218 168 176 184 172 168 169 156 160 158 153 149 156 162 164 162 166 164 155 146 138 129 120 109 102 95 90 86 79
22 259 219 144 152 156 171 192 217 222 268 185 155 237 249 207 229 183 191 185 179 156 169 172 165 163 159 157 163 167 171 173 172 162 155 148 134 122 115 110 102 94 88 81
159 231 144 163 158 179 207 203 199 191 90 29 110 310 201 228 186 183 190 201 197 190 180 178 175 171 167 166 170 175 177 176 174 166 157 143 135 127 120 116 109 98 89 81
229 265 252 148 244 164 222 205 168 131 130 211 174 260 254 214 209 200 199 197 198 195 193 180 179 180 176 174 180 181 183 181 182 177 162 156 149 138 132 124 116 111 99 88
241 192 230 257 221 174 225 137 163 108 147 99 225 79 270 146 206 223 219 210 202 197 187 189 186 177 178 169 174 179 179 184 185 180 174 160 148 143 140 134 129 121 108 94
229 242 230 217 152 180 144 68 48 53 83 76 224 146 279 196 212 220 223 226 213 195 189 181 176 169 168 167 166 174 176 177 181 182 174 168 158 154 150 149 142 133 117 100
308 236 265 204 109 51 66 73 7 346 355 221 106 90 236 226 241 233 238 234 223 185 181 168 174 149 176 164 163 174 189 182 183 182 177 174 169 166 162 156 150 146 134 114
177 312 188 177 197 177 175 155 155 194 200 240 69 232 250 208 206 248 262 253 225 180 178 182 151 160 147 154 161 208 190 180 181 180 181 177 174 171 166 160 158 156 148 130
171 271 279 226 161 134 175 181 168 102 16 48 233 290 312 285 298 334 291 257 184 170 175 170 162 170 168 180 191 201 195 183 181 184 181 178 173 169 167 170 165 163 155 124
189 289 236 209 95 35 158 154 83 12 139 230 284 278 230 254 255 263 237 194 173 151 154 166 165 173 188 193 184 197 196 189 181 181 180 176 169 165 166 170 168 164 148 133
140 145 265 343 202 181 139 191 54 116 128 173 205 261 217 220 218 227 234 219 196 182 176 177 184 189 188 184 192 196 198 192 183 182 180 173 167 168 167 165 162 165 151 135
190 154 234 216 216 213 203 172 141 129 222 201 156 264 225 231 237 211 236 216 215 203 195 193 191 184 181 183 188 195 196 196 188 182 174 171 168 165 165 165 159 147 133 119
180 140 345 331 353 351 199 193 123 112 89 191 153 256 246 257 249 243 239 219 212 215 191 182 177 189 193 190 183 183 192 197 189 178 173 168 164 165 163 155 148 139 140 118
109 141 164 199 223 199 195 188 168 134 129 194 210 238 274 254 228 226 229 233 212 196 204 198 193 200 198 189 177 176 186 193 187 179 173 168 169 168 158 151 148 142 143 126
131 200 180 240 234 220 257 224 174 190 200 183 235 192 242 243 231 242 251 232 199 204 196 198 205 200 195 180 171 169 178 187 183 177 174 173 170 163 153 147 145 134 144 166
1 203 162 261 273 227 256 260 226 246 222 271 264 272 228 285 290 280 265 247 219 212 211 208 205 195 188 176 167 164 168 178 182 178 175 170 164 157 153 149 156 150 165 144
158 142 127 238 254 331 290 194 207 209 197 192 225 234 258 270 269 261 269 249 236 229 216 213 206 194 178 174 167 161 164 174 177 174 172 166 163 159 158 157 155 155 155 140
147 130 135 195 65 246 250 228 191 205 221 224 260 244 232 234 247 256 239 247 250 223 212 206 179 168 163 157 156 154 164 168 168 165 160 164 165 163 159 159 161 156 149 141
185 134 156 166 202 298 316 225 193 188 255 216 222 241 249 252 48 288 241 223 251 246 189 159 158 150 150 154 155 158 159 160 158 155 159 166 167 161 161 160 155 151 144 145
108 62 172 142 191 223 214 224 205 93 262 243 205 240 225 125 250 256 345 238 146 136 144 137 142 147 153 160 160 151 152 152 153 158 163 166 164 159 158 157 148 149 151 150
145 190 212 179 240 283 244 255 131 208 257 260 246 211 138 204 217 255 305 105 119 122 130 138 148 152 152 149 148 144 148 155 157 161 161 160 159 158 156 150 155 152 139 139
181 173 190 121 228 286 197 53 168 233 277 297 296 244 213 227 257 265 232 148 129 119 120 128 122 124 138 144 147 146 144 154 159 159 157 158 158 155 157 157 155 151 139 133
237 197 192 182 208 231 252 151 235 187 230 255 260 290 274 265 249 142 127 118 125 125 121 125 122 117 132 147 148 144 145 156 158 158 158 158 157 163 162 158 153 152 146 133
317 28 221 51 310 247 235 185 218 217 243 298 285 311 319 288 274 180 151 147 145 138 134 138 131 128 123 137 149 163 161 162 160 158 159 160 165 166 167 162 161 163 165 156
264 338 243 292 279 314 296 267 308 290 277 271 261 249 269 262 234 183 173 169 155 145 143 146 142 143 146 157 164 164 171 167 161 162 164 167 172 173 174 176 179 181 181 186
233 264 293 249 337 45 275 281 289 277 276 284 274 289 273 213 213 185 186 172 155 150 150 140 137 130 141 154 164 178 178 174 167 166 171 176 177 177 182 184 183 194 207 220